Location: Waco, TX
(31.5480°N, 97.1670°W)
Time: 14:50:01
(UTC-05:00)

ISS - Pass Details

Date: 22 August 2019
Orbit: 410 x 421 km, 51.6° (Epoch: 22 August)

Event Time Altitude Azimuth Distance (km) Brightness Sun altitude
Rises 14:28:55 0° 328° (NNW) 2,366 0.0 66.1°
Reaches altitude 10° 14:31:22 10° 345° (NNW) 1,500 -1.0 65.8°
Maximum altitude 14:34:00 21° 37° (NE) 1,004 -1.8 65.5°
Drops below altitude 10° 14:36:38 10° 88° (E) 1,496 -1.0 65.1°
Sets 14:39:04 0° 105° (ESE) 2,357 -0.1 64.8°
